#timestamp,LO_Frequency,Hit,StdDev 
1458234015.3,286046990.0,N
1458234035.2,286046989.6,N
1458234055.9,286046989.1,N
1458234075.7,286046990.3,N
1458234095.6,286046992.8,N
1458234115.4,286046993.4,N
1458234135.2,286046997.8,N
1458234155.1,286047001.1,N
1458234156.0,286047001.1,N
1458234175.8,286046999.8,N
1458234195.6,286047003.1,N
1458234215.5,286047006.6,N
1458234235.3,286047009.0,N
1458234255.1,286047009.5,N
1458234275.9,286047011.8,N
1458234295.7,286047009.4,N
1458234315.5,286047014.8,N
1458234335.3,286047020.1,N
1458234355.2,286047021.7,N
1458234375.0,286047019.1,N
1458234375.9,286047019.1,N
1458234395.7,286047020.4,N
1458234415.6,286047018.9,N
1458234435.4,286047023.4,N
1458234455.2,286047018.9,N
1458234475.1,286047021.3,N
1458234476.0,286047021.3,N
1458234495.8,286047023.2,N
1458234515.6,286047023.3,N
1458234535.5,286047024.6,N
1458234555.3,286047020.5,N
1458234575.1,286047023.4,N
1458234595.9,286047025.1,N
1458234615.7,286047024.2,N
1458234635.5,286047026.6,N
1458234655.3,286047022.7,N
1458234675.2,286047020.6,N
1458234695.0,286047022.6,N
1458234695.9,286047022.6,Y
1458234715.8,286047007.1,P
1458234735.6,286047005.9,N
1458234755.4,286047003.7,N
1458234775.2,286047005.9,N
1458234795.1,286047003.7,N
1458234796.0,286047003.7,N
1458234815.8,286047003.8,N
1458234835.6,286047000.6,N
1458234855.5,286047000.7,N
1458234875.3,286047002.4,N
1458234895.1,286047001.6,N
1458234915.9,286047004.4,N
1458234935.7,286047001.4,N
1458234955.5,286047002.6,N
1458234975.4,286047000.6,N
1458234995.2,286046999.6,N
1458235015.0,286046997.7,N
1458235015.9,286046997.7,N
1458235035.8,286046995.2,N
1458235055.6,286046998.1,N
1458235075.4,286047000.8,N
1458235095.2,286046997.2,N
1458235115.1,286046995.3,N
1458235116.0,286046995.3,N
1458235135.8,286046993.7,N
1458235155.6,286046996.2,N
1458235175.5,286046996.3,N
1458235195.3,286046990.1,N
1458235215.1,286046992.3,N
1458235235.9,286046992.7,N
1458235255.7,286046993.4,N
1458235275.5,286046996.1,N
1458235295.4,286046993.7,N
1458235315.2,286046993.8,N
1458235335.0,286046996.2,N
1458235335.9,286046996.2,N
1458235355.8,286046992.9,N
1458235375.6,286046991.9,N
1458235395.4,286046990.9,N
1458235415.3,286046990.6,N
1458235435.1,286046992.7,N
1458235436.0,286046992.7,N
1458235455.8,286046990.3,N
1458235475.7,286046988.8,Y
1458235495.5,286046995.3,P
1458235515.3,286046995.4,P
1458235535.2,286046994.2,P
1458235555.9,286046991.7,Y
1458235575.7,286046997.1,P
1458235595.6,286046996.5,P
1458235615.4,286046999.3,N
1458235635.2,286046999.0,N
1458235655.0,286047001.4,N
1458235656.0,286047001.4,N
1458235675.8,286047000.6,N
1458235695.6,286047001.2,N
1458235715.4,286046999.5,N
1458235735.3,286046999.6,N
1458235755.1,286047000.3,N
1458235775.8,286047000.3,N
1458235795.7,286047002.7,N
1458235815.5,286047002.8,N
1458235835.3,286047002.1,N
1458235855.2,286047002.6,N
1458235875.9,286047000.2,N
1458235895.7,286047001.0,N
1458235915.6,286046999.8,N
1458235935.4,286047001.5,N
1458235955.2,286047002.2,N
1458235975.0,286047002.3,N
1458235975.9,286047002.3,N
1458235995.8,286047000.7,N
1458236015.6,286047004.3,N
1458236035.4,286047001.7,N
1458236055.3,286047003.9,N
1458236075.1,286047004.9,N
1458236076.0,286047004.9,N
1458236095.8,286047005.1,N
1458236115.7,286047002.8,N
1458236135.5,286047001.0,N
1458236155.3,286047004.3,N
1458236175.2,286047004.7,N
1458236195.9,286047004.2,N
1458236215.7,286047005.9,Y
1458236235.6,286047002.7,P
1458236255.4,286046998.6,P
1458236275.2,286046996.9,N
1458236295.0,286046998.7,N
1458236296.0,286046998.7,N
1458236315.8,286046995.8,N
1458236335.6,286046993.9,N
1458236355.4,286046993.5,N
1458236375.3,286046993.4,N
1458236395.1,286046997.6,N
1458236415.8,286047000.8,N
1458236435.7,286046996.6,N
1458236455.5,286046999.2,N
1458236475.3,286046997.3,N
1458236495.2,286047000.7,N
1458236515.9,286046996.5,N
1458236535.7,286046999.7,N
1458236555.6,286047005.8,N
1458236575.4,286047003.9,N
1458236595.2,286047001.2,N
1458236615.0,286047000.5,N
1458236616.0,286047000.5,N
1458236635.8,286046996.9,N
1458236655.6,286047001.2,N
1458236675.4,286047000.5,N
1458236695.3,286046998.2,N
1458236715.1,286046999.4,N
1458236735.8,286046999.5,N
1458236755.7,286046997.7,N
1458236775.5,286046995.7,N
1458236795.3,286046994.5,N
1458236815.2,286046994.7,N
1458236835.9,286046995.3,N
1458236855.7,286046993.0,N
1458236875.6,286046994.4,N
1458236895.4,286046994.8,N
1458236915.2,286046992.2,N
1458236935.1,286046994.4,N
1458236936.0,286046994.4,N
1458236955.8,286046996.2,N
1458236975.6,286046996.0,N
1458236995.4,286046991.9,N
1458237015.3,286046992.0,N
1458237035.1,286046992.2,N
1458237055.8,286046994.6,N
1458237075.7,286046994.7,N
1458237095.5,286046994.5,N
1458237115.3,286046992.4,N
1458237135.2,286046994.4,N
1458237155.9,286046992.4,N
1458237175.7,286046994.6,N
1458237195.6,286046993.6,N
1458237215.4,286046991.7,Y
1458237235.2,286047000.7,P
1458237255.1,286046995.3,N
1458237256.0,286046995.3,N
1458237275.8,286046995.5,N
1458237295.6,286046993.5,Y
1458237315.5,286046995.4,P
1458237335.3,286047000.8,N
1458237355.1,286047004.3,N
1458237375.9,286047004.8,N
1458237395.7,286047009.8,N
1458237415.5,286047012.3,N
1458237435.4,286047009.6,N
1458237455.2,286047009.4,N
1458237475.0,286047011.3,N
1458237475.9,286047011.3,N
1458237495.7,286047014.8,N
1458237515.6,286047015.0,N
1458237535.4,286047014.6,N
1458237555.2,286047016.9,N
1458237575.1,286047018.7,N
1458237576.0,286047018.7,N
1458237595.8,286047021.2,Y
